Location: Kershaw
(34.5481°N, 80.5823°W)
Time: 17:18:45
(UTC+00:00)

Transit 2A - Pass Details

Date: 10 October 2022
Orbit: 598 x 959 km, 66.7° (Epoch: 06 December)

Event Time Altitude Azimuth Distance (km) Brightness Sun altitude
Rises 12:03:25 0° 329° (NNW) 3,043 8.7 7.2°
Reaches altitude 10° 12:05:40 10° 325° (NW) 2,174 7.9 7.6°
Maximum altitude 12:10:32 61° 246° (WSW) 859 6.2 8.6°
Drops below altitude 10° 12:15:56 10° 167° (SSE) 2,400 9.0 9.7°
Sets 12:18:31 0° 164° (SSE) 3,388 9.8 10.2°
